General Mariano Matamoros Airport

Jump to: basic info | weather | frequencies | runways | comments

Related pages: nearby airports | nearby navaids | notams | map

Basic information (top)

Codes: CVJ MMCB
Location: lon 18.834801, lat -99.261299, elev 4,277 ft / 1,304 m msl
Status: medium_airport
Scheduled airline service: yes
Links: Wikipedia Mobile

Weather (top)

Current conditions (rec'd 2014/07/30 23:45Z):

MMCB 302345Z 28004KT 12SM SCT030TCU SCT080 BKN200 27/15 A3007 RMK 8/272

Airport forecast (rec'd 2014/07/28 18:45Z):

TAF COR TAF COR MMCB 280044Z 2718/2818 16010KT P6SM SCT030 BKN230 
     FM272300 17010KT P6SM SCT020CB OVC120 
      TEMPO 2802/2806 5SM TSRA BKN020CB 
     FM280600 00000KT P6SM SCT080 BKN230 
     FM281500 20010KT P6SM SCT230

Frequencies (top)

Verify before use: may be inaccurate or out of date.

APP: 128.9 MHz (TOLUCA APP)
TWR: 118.35 MHz (CUERNAVACA TWR)

Runways (top)

02/20: 9,439 x 148 ft (2,877 x 45 m) — paved — lighted — threshold 20 displaced 260 ft (79 m)

Latest comments (top)

No comments yet for General Mariano Matamoros Airport

More... (top)

See also NOTAMs and nearby airports and navaids, or visit the General Mariano Matamoros Airport page at the main OurAirports website..